Location: Unspecified
(0.0000°N, 0.0000°E)
Time: 11:53:11
(UTC+00:00)

OBJECT M - Pass Details

Date: 18 February 2026
Orbit: 539 x 546 km, 97.4° (Epoch: 8 March)

Event Time Altitude Azimuth Distance (km) Brightness Sun altitude
Rises 03:55:48 0° 153° (SSE) 2,713 ? -33.7°
Reaches altitude 10° 03:58:05 10° 143° (SE) 1,817 ? -33.2°
Enters shadow 03:59:16 18° 133° (SE) 1,401 ? -32.9°
